Location: Muñomer del Peco
(40.8588°N, 4.8799°W)
Time: 23:20:48
(UTC+00:00)

Daily predictions for brighter satellites

Satellite Brightness Start Highest point End
(mag) Time Altitude Azimuth Time Altitude Azimuth Time Altitude Azimuth
USA 234 3.4 18:09:52 10° ESE 18:16:19 64° NE 18:22:47 10° NW
Cosmos 2237 Rocket 2.6 18:16:26 10° N 18:21:48 42° ENE 18:27:10 10° SE
COSMOS 2428 2.9 18:16:37 10° NNW 18:22:22 82° WSW 18:28:05 10° SSE
Cosmos 2208 Rocket 4.4 18:21:56 10° S 18:26:47 41° ESE 18:31:43 10° NNE
ARIANE 5 R/B 3.0 18:21:43 10° S 18:26:49 68° WSW 18:31:52 10° NNW
SJ-12 4.4 18:25:08 10° S 18:28:52 61° W 18:32:38 10° NNW
Okean 1 Rocket 3.0 18:25:49 10° N 18:30:12 72° E 18:34:31 10° SSE
SAR-Lupe-4 3.5 18:28:04 10° SSE 18:31:36 72° ENE 18:35:10 10° N
Cosmos 44 Rocket 3.3 18:30:49 10° SSW 18:35:39 71° ESE 18:40:41 10° NE
Cosmos 1346 Rocket 4.0 18:33:53 10° SE 18:36:18 17° E 18:38:44 10° NE
Cosmos 1315 Rocket 4.3 18:33:30 10° NNW 18:37:04 40° W 18:40:38 10° SSW
Cosmos 2221 Rocket 3.8 18:33:14 10° S 18:37:41 80° W 18:42:13 10° N
Okean 2 Rocket 3.2 18:33:59 10° N 18:38:23 78° W 18:42:42 10° S
Cosmos 1025 Rocket 3.8 18:34:31 10° SSW 18:38:45 57° W 18:43:02 10° N
Cosmos 2061 Rocket 4.1 18:32:38 10° N 18:39:02 86° W 18:45:18 10° S
Cosmos 1602 4.0 18:37:40 10° SSE 18:39:57 24° E 18:42:15 10° NE
CZ-4C R/B 3.7 18:36:54 10° W 18:40:30 25° NW 18:44:49 10° NNE
Cosmos 836 Rocket 4.5 18:37:05 10° SSW 18:42:19 76° ESE 18:47:37 10° NNE
Cosmos 2227 Rocket 2.5 18:37:35 10° S 18:42:55 46° ESE 18:48:17 10° NE
Delta 2 Rocket 4.0 18:43:07 10° WSW 18:45:48 29° S 18:48:18 12° ESE
SL-16 R/B 3.4 18:43:53 10° N 18:48:06 21° NE 18:50:50 15° E
Helios 1A Rocket 3.7 18:49:53 18° E 18:50:34 19° E 18:52:59 10° SE
NOSS 3-4 (A) 4.0 18:45:10 10° NNW 18:51:54 53° NE 18:59:43 10° SE
NOSS 3-4 (C) 4.1 18:45:27 10° NNW 18:52:11 53° NE 19:00:00 10° SE
Resurs 1-3 3.7 18:50:21 10° S 18:54:37 78° WSW 18:58:57 10° NNW
Sich 1 Rocket 4.2 18:50:42 10° NNW 18:55:13 64° W 18:59:41 10° S
Aureole 3 Rocket 2.3 18:51:43 10° N 18:55:16 87° W 18:58:17 10° S
Cosmos 2150 Rocket 4.4 18:51:10 10° N 18:56:01 40° ENE 19:00:49 10° SE
Cosmos 2298 Rocket 4.4 18:55:04 10° N 19:00:06 42° ENE 19:05:05 10° SE
Resurs 01 Rocket 1.7 18:58:14 10° SSE 19:02:29 52° ENE 19:06:46 10° N
BREEZE-M DEB (TANK) 3.4 19:00:50 10° SSW 19:04:02 46° SE 19:11:13 15° ENE
Cosmos 1782 3.2 19:05:27 10° NNE 19:08:43 32° ENE 19:09:32 29° ESE
Gbstr 26 Del rocket 4.2 19:02:56 10° SW 19:09:22 65° SE 19:15:03 18° ENE
CARTOSAT-1 3.4 19:08:07 10° SSE 19:12:18 88° WSW 19:16:32 10° NNW
Atlas Centaur 2 3.9 19:08:32 10° WSW 19:15:32 34° S 19:20:56 13° SE
CSL-04 Rocket 4.4 19:17:14 27° E 19:18:29 30° ENE 19:23:01 10° N
ARIANE 6 FM1 Upper Stage 4.3 19:19:14 10° N 19:21:31 18° NNE 19:21:31 18° NNE
Cosmos 2297 Rocket 3.8 19:22:28 10° WSW 19:27:33 33° WNW 19:32:39 10° N
BREEZE-M DEB (TANK) 4.3 19:23:29 10° NW 19:27:43 74° NNE 19:36:56 20° ESE
Radarsat Rocket 4.4 19:22:26 10° S 19:28:12 63° WSW 19:34:22 10° NNW
Cosmos 2058 2.7 19:25:12 10° S 19:28:58 53° E 19:29:54 42° NE
SJ-6B 2.3 19:28:11 27° SSE 19:29:54 74° ENE 19:33:20 10° N
SPOT 5 3.4 19:31:23 36° ENE 19:31:23 36° ENE 19:35:58 10° N
Tiangong -2.2 19:29:25 10° W 19:32:34 78° NNW 19:32:34 78° NNW
Tsikada Rocket 4.2 19:27:08 10° SSE 19:32:49 41° E 19:38:33 10° NNE
SeaSat 1 4.2 19:29:24 10° S 19:33:44 32° WSW 19:38:06 10° NW
Cosmos 2084 3.5 19:31:00 10° SSW 19:35:01 50° ESE 19:35:01 50° ESE
IRAS Rocket 4.2 19:32:17 10° SSE 19:37:53 85° ENE 19:43:32 10° NNW
Cosmos 2228 3.3 19:38:52 10° NNW 19:43:02 65° W 19:47:11 10° S
Cosmos 2219 3.3 19:38:25 10° S 19:43:57 53° ESE 19:45:34 40° ENE
Cosmos 1544 Rocket 3.6 19:42:17 10° N 19:46:04 57° NE 19:46:04 57° NE
BREEZE M DEB (TANK) 4.3 19:27:51 10° SSW 19:46:56 51° SSE 19:49:17 38° E
Cosmos 1975 Rocket 4.3 19:45:35 10° SSW 19:49:42 41° WNW 19:53:48 10° N
Cosmos 2263 Rocket 2.2 19:48:02 10° SSW 19:53:43 80° WNW 19:58:28 15° NNE
Orbus 7S? 3.5 19:50:36 10° NW 19:56:52 72° NNE 19:56:52 72° NNE
Cosmos 2034 Rocket 3.9 19:57:14 10° N 20:03:26 86° W 20:09:39 10° S
Cosmos 2237 Rocket 4.2 20:00:52 10° NW 20:05:36 28° WSW 20:10:20 10° SSW
Cosmos 1634 Rocket 4.1 20:03:39 10° N 20:09:11 56° NE 20:09:11 56° NE
Cosmos 2082 3.7 20:06:21 10° SSW 20:11:25 67° SSE 20:11:25 67° SSE
Cosmos 2344 3.8 20:11:37 10° SW 20:19:35 62° NW 20:24:32 21° NNE
Cosmos 2227 Rocket 4.1 20:22:24 10° WSW 20:27:07 27° NW 20:31:53 10° N
SL-16 R/B 2.5 20:27:03 10° NNW 20:32:39 62° WSW 20:32:45 62° WSW
Atlas Centaur 2 4.4 20:58:22 10° WSW 21:02:51 19° SSW 21:02:51 19° SSW
